Home   Weather   Zhengzhou   Past weeks

Flag for China Past Weather in Zhengzhou, Henan, China — Yesterday and Last 2 Weeks

Now
79 °F

Fog.


Feels Like: 82 °F
Forecast: 77 / 94 °F
Wind: 8 mph from Northeast

Location: Zhengzhou Airport

Current Time: Aug 20, 2017 at 10:19:05 am

Latest Report: Aug 20, 2017 at 9:00 am


Visibility: 2 mi

Pressure: 29.80 "Hg

Humidity: 79%

Dew Point: 72 °F

Location of ZhengzhouLocation

Past Weather in Zhengzhou — Graph

°F

Zhengzhou Temperature Yesterday

Maximum temperature yesterday: 82 °F (at 4:00 pm)
Minimum temperature yesterday: 73 °F (at 3:00 am)
Average temperature yesterday: 78 °F

High & Low Weather Summary for the Past Weeks

 TemperatureHumidityPressure
High99 °F (Aug 6, 1:00 pm)100% (Aug 7, 2:00 pm)29.80 "Hg (Aug 7, 2:00 pm)
Low72 °F (Aug 9, 6:00 am)28% (Aug 9, 2:00 pm)29.42 "Hg (Aug 9, 3:00 pm)
Average83 °F74%29.65 "Hg
* Reported Aug 5 9:00 am — Aug 20 9:00 am, Zhengzhou. Weather by CustomWeather, © 2017

Note: Actual official high and low records may vary slightly from our data, if they occured in-between our weather recording intervals... More about our weather records

Advertising

Zhengzhou Weather History for the Previous 24 Hours

Scroll right to see more
 ConditionsComfort  
Time TempWeatherWind HumidityBarometerVisibility
9:00 am
Sun, Aug 20
79 °FFog.8 mph79%29.80 "Hg2 mi
8:00 am77 °FFog.10 mph83%29.80 "Hg2 mi
7:00 am75 °FFog.10 mph89%29.77 "Hg2 mi
6:00 am75 °FFog.8 mph89%29.77 "Hg2 mi
5:00 am75 °FFog.8 mph89%29.77 "Hg2 mi
4:00 am75 °FFog.8 mph89%29.77 "Hg2 mi
3:00 am75 °FFog.6 mph89%29.74 "Hg2 mi
2:00 am77 °FFog.6 mph83%29.77 "Hg2 mi
1:00 am77 °FFog.6 mph89%29.77 "Hg2 mi
12:00 am77 °FFog.6 mph89%29.77 "Hg2 mi
11:00 pm
Sat, Aug 19
79 °FFog.8 mph84%29.77 "Hg2 mi
10:00 pm79 °FFog.6 mph84%29.77 "Hg2 mi
9:00 pm79 °FFog.8 mph89%29.77 "Hg2 mi
8:00 pm81 °FFog.8 mph84%29.74 "Hg1 mi
7:00 pm81 °FFog.6 mph84%29.74 "Hg2 mi
6:00 pm81 °FFog.8 mph84%29.71 "Hg2 mi
5:00 pm81 °FFog.8 mph84%29.71 "Hg2 mi
4:00 pm82 °FFog.10 mph79%29.71 "Hg2 mi
3:00 pm81 °FFog.8 mph84%29.71 "Hg2 mi
2:00 pm81 °FFog.8 mph84%29.74 "Hg2 mi
1:00 pm79 °FFog.10 mph89%29.74 "Hg2 mi
12:00 pm79 °FLight rain. More clouds than sun.8 mph84%29.74 "Hg4 mi
11:00 am79 °FLight rain. Fog.6 mph89%29.77 "Hg2 mi
10:00 am81 °FFog.6 mph84%29.77 "Hg2 mi
Weather by CustomWeather, © 2017

See weather overviewHow to use our weather pages